Time,TemperatureF,DewpointF,PressureIn,WindDirection,WindDirectionDegrees,WindSpeedMPH,WindSpeedGustMPH,Humidity,HourlyPrecipIn,Conditions,Clouds,dailyrainin,SolarRadiationWatts/m^2,SoftwareType,DateUTC
2013-05-09 00:09:00,63.1,59.0,29.87,East,92,3.0,10.0,87,0.00,,,0.00,0,weatherlink.com 1.10,2013-05-09 05:09:00,
2013-05-09 00:24:00,63.5,60.0,29.87,South,180,4.0,18.0,87,0.13,,,0.13,0,weatherlink.com 1.10,2013-05-09 05:24:00,
2013-05-09 00:39:00,63.7,60.0,29.87,ESE,114,2.0,5.0,86,0.16,,,0.16,0,weatherlink.com 1.10,2013-05-09 05:39:00,
2013-05-09 00:54:00,63.5,59.0,29.86,ESE,114,0.0,2.0,86,0.16,,,0.16,0,weatherlink.com 1.10,2013-05-09 05:54:00,
2013-05-09 01:09:00,63.2,59.0,29.88,SW,217,1.0,5.0,87,0.16,,,0.16,0,weatherlink.com 1.10,2013-05-09 06:09:00,
2013-05-09 01:24:00,62.9,59.0,29.87,SSW,199,0.0,2.0,87,0.03,,,0.16,0,weatherlink.com 1.10,2013-05-09 06:24:00,
2013-05-09 01:39:00,62.6,59.0,29.86,SSW,199,0.0,0.0,88,0.00,,,0.16,0,weatherlink.com 1.10,2013-05-09 06:39:00,
2013-05-09 01:54:00,62.3,59.0,29.85,SSW,199,0.0,0.0,88,0.00,,,0.16,0,weatherlink.com 1.10,2013-05-09 06:54:00,
2013-05-09 02:09:00,61.8,59.0,29.86,SSW,199,0.0,2.0,90,0.00,,,0.16,0,weatherlink.com 1.10,2013-05-09 07:09:00,
2013-05-09 02:24:00,61.7,59.0,29.86,WSW,251,0.0,3.0,90,0.00,,,0.16,0,weatherlink.com 1.10,2013-05-09 07:24:00,
2013-05-09 02:39:00,61.5,59.0,29.86,WSW,251,0.0,0.0,91,0.01,,,0.17,0,weatherlink.com 1.10,2013-05-09 07:39:00,
2013-05-09 02:54:00,61.5,59.0,29.86,WSW,251,0.0,0.0,91,0.01,,,0.17,0,weatherlink.com 1.10,2013-05-09 07:54:00,
2013-05-09 03:09:00,61.4,59.0,29.86,West,259,0.0,3.0,91,0.01,,,0.17,0,weatherlink.com 1.10,2013-05-09 08:09:00,
2013-05-09 03:24:00,61.2,59.0,29.86,WNW,302,1.0,9.0,92,0.01,,,0.17,0,weatherlink.com 1.10,2013-05-09 08:24:00,
2013-05-09 03:39:00,61.2,58.0,29.85,WNW,296,3.0,9.0,88,0.00,,,0.17,0,weatherlink.com 1.10,2013-05-09 08:39:00,
2013-05-09 03:54:00,61.0,58.0,29.85,WNW,289,1.0,4.0,88,0.00,,,0.17,0,weatherlink.com 1.10,2013-05-09 08:54:00,
2013-05-09 04:09:00,60.8,57.0,29.84,WNW,289,1.0,2.0,88,0.00,,,0.17,0,weatherlink.com 1.10,2013-05-09 09:09:00,
2013-05-09 04:24:00,60.4,57.0,29.83,WNW,289,2.0,3.0,89,0.00,,,0.17,0,weatherlink.com 1.10,2013-05-09 09:24:00,
2013-05-09 04:39:00,60.1,57.0,29.82,WNW,289,0.0,2.0,90,0.00,,,0.17,0,weatherlink.com 1.10,2013-05-09 09:39:00,
2013-05-09 04:54:00,59.8,57.0,29.80,WNW,289,0.0,2.0,91,0.00,,,0.17,0,weatherlink.com 1.10,2013-05-09 09:54:00,
2013-05-09 05:10:00,59.6,57.0,29.82,WNW,289,0.0,2.0,91,0.00,,,0.17,0,weatherlink.com 1.10,2013-05-09 10:10:00,
2013-05-09 05:25:00,59.5,57.0,29.82,WNW,289,0.0,2.0,91,0.00,,,0.17,0,weatherlink.com 1.10,2013-05-09 10:25:00,
2013-05-09 05:40:00,59.4,57.0,29.82,WNW,289,0.0,1.0,92,0.00,,,0.17,0,weatherlink.com 1.10,2013-05-09 10:40:00,
2013-05-09 05:55:00,59.3,57.0,29.82,WNW,289,0.0,3.0,92,0.00,,,0.17,0,weatherlink.com 1.10,2013-05-09 10:55:00,
2013-05-09 06:10:00,59.1,57.0,29.82,WNW,289,0.0,1.0,92,0.00,,,0.17,0,weatherlink.com 1.10,2013-05-09 11:10:00,
2013-05-09 06:25:00,58.9,57.0,29.82,WNW,289,0.0,1.0,92,0.00,,,0.17,0,weatherlink.com 1.10,2013-05-09 11:25:00,
2013-05-09 06:40:00,58.9,57.0,29.82,East,96,0.0,3.0,93,0.00,,,0.17,7,weatherlink.com 1.10,2013-05-09 11:40:00,
2013-05-09 06:55:00,58.9,57.0,29.82,WSW,250,0.0,2.0,93,0.00,,,0.17,14,weatherlink.com 1.10,2013-05-09 11:55:00,
2013-05-09 07:10:00,58.8,57.0,29.82,WSW,250,0.0,0.0,93,0.00,,,0.17,23,weatherlink.com 1.10,2013-05-09 12:10:00,
2013-05-09 07:25:00,58.7,57.0,29.82,WSW,250,0.0,1.0,93,0.00,,,0.17,30,weatherlink.com 1.10,2013-05-09 12:25:00,
2013-05-09 07:40:00,58.8,57.0,29.84,WNW,295,4.0,4.0,93,0.00,,,0.17,40,weatherlink.com 1.10,2013-05-09 12:40:00,
2013-05-09 07:55:00,59.0,57.0,29.84,WNW,296,0.0,3.0,93,0.00,,,0.17,62,weatherlink.com 1.10,2013-05-09 12:55:00,
2013-05-09 08:10:00,59.2,58.0,29.84,WNW,296,0.0,3.0,94,0.00,,,0.17,91,weatherlink.com 1.10,2013-05-09 13:10:00,
2013-05-09 08:25:00,59.6,58.0,29.85,WNW,296,1.0,3.0,94,0.00,,,0.17,132,weatherlink.com 1.10,2013-05-09 13:25:00,
2013-05-09 08:40:00,60.3,59.0,29.85,NW,307,1.0,4.0,94,0.00,,,0.17,186,weatherlink.com 1.10,2013-05-09 13:40:00,
2013-05-09 08:55:00,61.1,59.0,29.86,WNW,292,0.0,4.0,93,0.00,,,0.17,179,weatherlink.com 1.10,2013-05-09 13:55:00,
2013-05-09 09:10:00,62.2,60.0,29.86,WNW,292,1.0,3.0,92,0.00,,,0.17,214,weatherlink.com 1.10,2013-05-09 14:10:00,
2013-05-09 09:25:00,63.2,61.0,29.86,WNW,292,0.0,3.0,91,0.00,,,0.17,287,weatherlink.com 1.10,2013-05-09 14:25:00,
2013-05-09 09:40:00,64.4,61.0,29.86,WNW,283,1.0,4.0,87,0.00,,,0.17,336,weatherlink.com 1.10,2013-05-09 14:40:00,
2013-05-09 09:55:00,65.8,61.0,29.86,WSW,258,0.0,4.0,85,0.00,,,0.17,517,weatherlink.com 1.10,2013-05-09 14:55:00,
2013-05-09 10:10:00,67.5,62.0,29.85,WSW,240,3.0,5.0,81,0.00,,,0.17,633,weatherlink.com 1.10,2013-05-09 15:10:00,
2013-05-09 10:25:00,69.0,61.0,29.85,WSW,256,2.0,4.0,76,0.00,,,0.17,668,weatherlink.com 1.10,2013-05-09 15:25:00,
2013-05-09 10:40:00,69.7,60.0,29.86,WSW,256,2.0,5.0,72,0.00,,,0.17,596,weatherlink.com 1.10,2013-05-09 15:40:00,
2013-05-09 10:55:00,69.9,60.0,29.86,WSW,238,0.0,7.0,72,0.00,,,0.17,629,weatherlink.com 1.10,2013-05-09 15:55:00,
2013-05-09 11:10:00,70.2,58.0,29.86,WSW,241,3.0,7.0,66,0.00,,,0.17,744,weatherlink.com 1.10,2013-05-09 16:10:00,
2013-05-09 11:25:00,70.6,59.0,29.86,SW,219,2.0,7.0,67,0.00,,,0.17,564,weatherlink.com 1.10,2013-05-09 16:25:00,
2013-05-09 11:40:00,70.7,59.0,29.86,SW,230,3.0,6.0,67,0.00,,,0.17,478,weatherlink.com 1.10,2013-05-09 16:40:00,
2013-05-09 11:56:00,70.8,60.0,29.86,West,267,1.0,7.0,69,0.00,,,0.17,777,weatherlink.com 1.10,2013-05-09 16:56:00,
2013-05-09 12:11:00,71.7,60.0,29.86,West,275,2.0,5.0,66,0.00,,,0.17,555,weatherlink.com 1.10,2013-05-09 17:11:00,
2013-05-09 12:26:00,72.6,62.0,29.86,WSW,254,0.0,9.0,69,0.00,,,0.17,1102,weatherlink.com 1.10,2013-05-09 17:26:00,
2013-05-09 12:41:00,72.4,60.0,29.86,WNW,296,1.0,8.0,65,0.00,,,0.17,666,weatherlink.com 1.10,2013-05-09 17:41:00,
2013-05-09 12:56:00,73.1,60.0,29.86,WSW,248,1.0,7.0,63,0.00,,,0.17,763,weatherlink.com 1.10,2013-05-09 17:56:00,
2013-05-09 13:11:00,74.0,61.0,29.86,West,267,3.0,7.0,63,0.00,,,0.17,422,weatherlink.com 1.10,2013-05-09 18:11:00,
2013-05-09 13:26:00,73.2,62.0,29.85,NNW,331,0.0,9.0,67,0.00,,,0.17,452,weatherlink.com 1.10,2013-05-09 18:26:00,
2013-05-09 13:41:00,73.5,59.0,29.86,SW,214,6.0,8.0,60,0.00,,,0.17,417,weatherlink.com 1.10,2013-05-09 18:41:00,
2013-05-09 13:56:00,73.4,59.0,29.86,NW,304,2.0,9.0,61,0.00,,,0.17,466,weatherlink.com 1.10,2013-05-09 18:56:00,
2013-05-09 14:11:00,73.8,59.0,29.86,SSW,209,0.0,8.0,60,0.00,,,0.17,257,weatherlink.com 1.10,2013-05-09 19:11:00,
2013-05-09 14:26:00,73.4,60.0,29.84,SSW,212,7.0,7.0,63,0.00,,,0.17,1062,weatherlink.com 1.10,2013-05-09 19:26:00,
2013-05-09 14:41:00,74.4,59.0,29.84,West,281,3.0,7.0,60,0.00,,,0.17,397,weatherlink.com 1.10,2013-05-09 19:41:00,
2013-05-09 14:56:00,73.6,59.0,29.84,NW,305,2.0,10.0,61,0.00,,,0.17,330,weatherlink.com 1.10,2013-05-09 19:56:00,
2013-05-09 15:11:00,72.1,60.0,29.84,WNW,294,4.0,10.0,66,0.00,,,0.17,174,weatherlink.com 1.10,2013-05-09 20:11:00,
2013-05-09 15:26:00,69.9,60.0,29.84,NW,321,2.0,9.0,71,0.00,,,0.17,167,weatherlink.com 1.10,2013-05-09 20:26:00,
2013-05-09 15:41:00,70.2,60.0,29.85,WNW,292,1.0,7.0,70,0.00,,,0.17,248,weatherlink.com 1.10,2013-05-09 20:41:00,
2013-05-09 15:56:00,70.3,60.0,29.84,WNW,284,1.0,5.0,70,0.00,,,0.17,271,weatherlink.com 1.10,2013-05-09 20:56:00,
2013-05-09 16:11:00,71.7,61.0,29.85,North,360,1.0,5.0,68,0.00,,,0.17,262,weatherlink.com 1.10,2013-05-09 21:11:00,
2013-05-09 16:26:00,71.1,60.0,29.85,WNW,285,2.0,6.0,69,0.00,,,0.17,197,weatherlink.com 1.10,2013-05-09 21:26:00,
2013-05-09 16:41:00,70.8,61.0,29.85,NW,309,4.0,6.0,72,0.00,,,0.17,229,weatherlink.com 1.10,2013-05-09 21:41:00,
2013-05-09 16:56:00,70.6,61.0,29.84,NW,313,2.0,4.0,71,0.00,,,0.17,88,weatherlink.com 1.10,2013-05-09 21:56:00,
2013-05-09 17:11:00,69.5,62.0,29.85,NW,312,0.0,3.0,76,0.04,,,0.21,107,weatherlink.com 1.10,2013-05-09 22:11:00,
2013-05-09 17:26:00,67.7,62.0,29.85,NW,312,0.0,2.0,83,0.15,,,0.32,127,weatherlink.com 1.10,2013-05-09 22:26:00,
2013-05-09 17:41:00,67.0,63.0,29.85,NW,312,0.0,2.0,86,0.15,,,0.32,102,weatherlink.com 1.10,2013-05-09 22:41:00,
2013-05-09 17:56:00,67.1,63.0,29.85,NW,311,2.0,2.0,85,0.15,,,0.32,100,weatherlink.com 1.10,2013-05-09 22:56:00,
2013-05-09 18:11:00,67.7,63.0,29.85,NW,311,1.0,2.0,84,0.11,,,0.32,153,weatherlink.com 1.10,2013-05-09 23:11:00,
2013-05-09 18:26:00,68.0,62.0,29.84,NW,313,0.0,3.0,82,0.00,,,0.32,86,weatherlink.com 1.10,2013-05-09 23:26:00,
2013-05-09 18:41:00,68.8,63.0,29.84,NW,320,2.0,3.0,81,0.00,,,0.32,241,weatherlink.com 1.10,2013-05-09 23:41:00,
2013-05-09 18:56:00,69.3,62.0,29.86,NW,313,1.0,8.0,77,0.00,,,0.32,214,weatherlink.com 1.10,2013-05-09 23:56:00,
2013-05-09 19:11:00,68.9,61.0,29.86,NNE,14,4.0,6.0,76,0.00,,,0.32,153,weatherlink.com 1.10,2013-05-10 00:11:00,
2013-05-09 19:26:00,68.3,60.0,29.85,NNW,345,1.0,5.0,76,0.00,,,0.32,109,weatherlink.com 1.10,2013-05-10 00:26:00,
2013-05-09 19:41:00,67.7,60.0,29.85,NW,313,0.0,6.0,76,0.00,,,0.32,69,weatherlink.com 1.10,2013-05-10 00:41:00,
2013-05-09 19:56:00,67.1,59.0,29.85,NW,322,1.0,7.0,76,0.00,,,0.32,26,weatherlink.com 1.10,2013-05-10 00:56:00,
2013-05-09 20:11:00,66.3,59.0,29.86,NNW,348,0.0,5.0,77,0.00,,,0.32,14,weatherlink.com 1.10,2013-05-10 01:11:00,
2013-05-09 20:26:00,65.7,59.0,29.86,NNW,348,0.0,4.0,78,0.00,,,0.32,0,weatherlink.com 1.10,2013-05-10 01:26:00,
2013-05-09 20:41:00,65.2,59.0,29.87,NNW,348,0.0,2.0,79,0.00,,,0.32,0,weatherlink.com 1.10,2013-05-10 01:41:00,
2013-05-09 20:56:00,64.7,58.0,29.88,NNW,348,0.0,1.0,79,0.00,,,0.32,0,weatherlink.com 1.10,2013-05-10 01:56:00,
2013-05-09 21:11:00,64.3,58.0,29.88,NNW,348,0.0,1.0,80,0.00,,,0.32,0,weatherlink.com 1.10,2013-05-10 02:11:00,
2013-05-09 21:26:00,63.6,58.0,29.87,NNW,348,0.0,1.0,81,0.00,,,0.32,0,weatherlink.com 1.10,2013-05-10 02:26:00,
2013-05-09 21:41:00,63.2,58.0,29.87,NNW,348,0.0,1.0,82,0.00,,,0.32,0,weatherlink.com 1.10,2013-05-10 02:41:00,
2013-05-09 21:56:00,62.7,58.0,29.88,NNW,348,0.0,0.0,83,0.00,,,0.32,0,weatherlink.com 1.10,2013-05-10 02:56:00,
2013-05-09 22:11:00,62.1,57.0,29.89,NNW,348,0.0,0.0,84,0.00,,,0.32,0,weatherlink.com 1.10,2013-05-10 03:11:00,
2013-05-09 22:26:00,61.5,57.0,29.89,NNW,348,0.0,1.0,85,0.00,,,0.32,0,weatherlink.com 1.10,2013-05-10 03:26:00,
2013-05-09 22:41:00,60.9,56.0,29.90,NNW,348,0.0,1.0,85,0.00,,,0.32,0,weatherlink.com 1.10,2013-05-10 03:41:00,
2013-05-09 22:56:00,60.6,56.0,29.90,NNW,348,0.0,1.0,86,0.00,,,0.32,0,weatherlink.com 1.10,2013-05-10 03:56:00,
2013-05-09 23:11:00,60.3,57.0,29.91,NNW,348,0.0,1.0,87,0.00,,,0.32,0,weatherlink.com 1.10,2013-05-10 04:11:00,
2013-05-09 23:26:00,60.1,56.0,29.91,NNW,348,0.0,1.0,87,0.00,,,0.32,0,weatherlink.com 1.10,2013-05-10 04:26:00,
2013-05-09 23:41:00,59.9,56.0,29.91,NNW,348,0.0,1.0,88,0.00,,,0.32,0,weatherlink.com 1.10,2013-05-10 04:41:00,
2013-05-09 23:56:00,59.7,56.0,29.91,NNW,348,1.0,2.0,88,0.00,,,0.32,0,weatherlink.com 1.10,2013-05-10 04:56:00,